Winston-Salem, NC

12:05 PM EST on November 23, 2017 (GMT -0500)
Smith Reynolds

Weather History for KINT - May, 2013

Change the Weather History Date:

Thursday, May 2, 2013

  Actual Average Record
Temperature  
Mean Temperature 58 °F -  
Max Temperature 61 °F 72 °F 90 °F (2012)
Min Temperature 54 °F 51 °F 36 °F (1988)
Degree Days  
Heating Degree Days 8    
Growing Degree Days 8 (Base 50)    
Moisture  
Dew Point 51 °F    
Average Humidity 80    
Maximum Humidity 93    
Minimum Humidity 74    
Precipitation  
Precipitation 0.00 in - - ()
Sea Level Pressure  
Sea Level Pressure 30.31 in    
Wind  
Wind Speed 8 mph (NE)    
Max Wind Speed 12 mph    
Max Gust Speed 17 mph    
Visibility 10 miles    
Events      
Averages and records for this station are not official NWS values.
T = Trace of Precipitation, MM = Missing Value Source: NWS Daily Summary

Daily Weather History Graph

Daily Weather History Graph

Search for Another Location

Airport or City:

Trip Planner

Search our weather history database for the weather conditions in past years. The results will help you decide how hot, cold, wet, or windy it might be!

Date:

Astronomy

May. 02, 2013 Rise Set
Actual Time 6:26 AM EDT 8:09 PM EDT
Civil Twilight 5:59 AM EDT 8:37 PM EDT
Nautical Twilight 5:25 AM EDT 9:10 PM EDT
Astronomical Twilight 4:50 AM EDT 9:45 PM EDT
Moon 1:59 AM EDT (5/2) 1:10 PM EDT (5/2)
Length of Visible Light 14h 37m
Length of Day
13h 42m
Waning Gibbous, 48% of the Moon is Illuminated
May 2
Waning Gibbous
May 9
New
May 18
First Quarter
May 25
Full
May 31
Last Quarter

Hourly Weather History & Observations

Time (EDT) Temp. Dew Point Humidity Pressure Visibility Wind Dir Wind Speed Gust Speed Precip Events Conditions
12:32 AM 57.2 °F 51.8 °F 82% 30.33 in 10.0 mi ENE 6.9 mph - N/A   Overcast
12:54 AM 57.0 °F 52.0 °F 83% 30.32 in 10.0 mi ENE 6.9 mph - N/A   Overcast
1:54 AM 57.0 °F 51.1 °F 81% 30.31 in 10.0 mi ENE 9.2 mph 16.1 mph N/A   Overcast
2:35 AM 57.2 °F 50.0 °F 77% 30.32 in 10.0 mi ENE 8.1 mph - N/A   Overcast
2:54 AM 57.0 °F 48.9 °F 74% 30.30 in 10.0 mi ENE 10.4 mph - N/A   Overcast
3:54 AM 55.9 °F 48.0 °F 75% 30.30 in 10.0 mi ENE 10.4 mph - N/A   Overcast
4:54 AM 55.0 °F 46.9 °F 74% 30.29 in 10.0 mi ENE 9.2 mph - N/A   Overcast
5:54 AM 54.0 °F 48.0 °F 80% 30.30 in 10.0 mi Variable 6.9 mph - N/A   Overcast
6:54 AM 54.0 °F 48.9 °F 83% 30.30 in 10.0 mi ENE 10.4 mph - N/A   Overcast
7:54 AM 55.0 °F 48.0 °F 77% 30.32 in 10.0 mi ENE 11.5 mph - N/A   Overcast
8:54 AM 55.0 °F 48.9 °F 80% 30.33 in 10.0 mi ENE 10.4 mph 17.3 mph N/A   Overcast
9:54 AM 55.9 °F 50.0 °F 80% 30.33 in 10.0 mi NE 5.8 mph - N/A   Overcast
10:54 AM 57.0 °F 51.1 °F 81% 30.34 in 10.0 mi NE 8.1 mph - N/A   Overcast
11:54 AM 57.9 °F 51.1 °F 78% 30.35 in 10.0 mi NE 10.4 mph - N/A   Overcast
12:54 PM 59.0 °F 52.0 °F 78% 30.35 in 10.0 mi East 9.2 mph - N/A   Overcast
1:18 PM 59.0 °F 51.8 °F 77% 30.35 in 10.0 mi NE 8.1 mph - N/A   Overcast
1:54 PM 61.0 °F 53.1 °F 75% 30.33 in 10.0 mi NE 11.5 mph 16.1 mph N/A   Overcast
2:54 PM 60.1 °F 52.0 °F 75% 30.33 in 10.0 mi ENE 8.1 mph - N/A   Overcast
3:54 PM 61.0 °F 53.1 °F 75% 30.31 in 10.0 mi NNE 8.1 mph - N/A   Overcast
4:54 PM 59.0 °F 53.1 °F 81% 30.30 in 10.0 mi NE 9.2 mph - N/A   Overcast
5:54 PM 61.0 °F 53.1 °F 75% 30.28 in 10.0 mi NE 8.1 mph - N/A   Overcast
6:54 PM 60.1 °F 54.0 °F 80% 30.27 in 10.0 mi NNE 6.9 mph - N/A   Overcast
7:54 PM 59.0 °F 53.1 °F 81% 30.28 in 10.0 mi East 4.6 mph - N/A   Overcast
8:54 PM 57.9 °F 52.0 °F 81% 30.29 in 10.0 mi East 8.1 mph - N/A   Overcast
9:54 PM 55.9 °F 53.1 °F 90% 30.30 in 10.0 mi Calm Calm - N/A   Scattered Clouds
10:54 PM 55.0 °F 53.1 °F 93% 30.29 in 10.0 mi NNE 3.5 mph - N/A   Mostly Cloudy
11:54 PM 55.0 °F 52.0 °F 89% 30.28 in 10.0 mi North 3.5 mph - N/A   Overcast